NOAA 19 - Orbit

View from above orbital plane
View from above orbital plane
View from above satellite
View from above satellite

Ground track
Ground track

The orbit data is extracted from the following two-line orbital elements,

1 33591U 09005A   13140.46532899  .00000251  00000-0  16257-3 0  8047
2 33591 098.9022 082.7506 0014866 144.8760 352.3064 14.11501547220585
Epoch (UTC): 20 May 2013 11:10:04
Eccentricity: 0.0014866
inclination: 98.9022°
perigee height: 843 km
apogee height: 865 km
right ascension of ascending node: 82.7506°
argument of perigee: 144.8760°
revolutions per day: 14.11501547
mean anomaly at epoch: 352.3064°
orbit number at epoch: 22058

The dashed part of the orbit path shows where the satellite is in the earth's shadow,  

Developed and maintained by Chris Peat, Heavens-Above GmbH. Please read the updated FAQ before sending e-mail. Imprint. DLR